Time,TemperatureF,DewpointF,PressureIn,WindDirection,WindDirectionDegrees,WindSpeedMPH,WindSpeedGustMPH,Humidity,HourlyPrecipIn,Conditions,Clouds,dailyrainin,SoftwareType,DateUTC
2013-01-28 00:03:00,40.1,38.3,30.32,SW,225,1.1,3.4,93,0.00,,,0.00,WUHU216HW,2013-01-28 08:03:00,
2013-01-28 00:08:00,40.1,38.3,30.32,SE,135,0.4,3.4,93,0.00,,,0.00,WUHU216HW,2013-01-28 08:08:00,
2013-01-28 00:13:00,40.1,38.3,30.32,SE,135,0.0,0.7,93,0.00,,,0.00,WUHU216HW,2013-01-28 08:13:00,
2013-01-28 00:18:00,40.3,38.4,30.32,SE,135,0.2,0.7,93,0.00,,,0.00,WUHU216HW,2013-01-28 08:18:00,
2013-01-28 00:23:00,40.3,38.4,30.32,SSW,203,0.7,0.7,93,0.00,,,0.00,WUHU216HW,2013-01-28 08:23:00,
2013-01-28 00:28:00,40.3,38.4,30.32,WSW,248,0.4,0.7,93,0.00,,,0.00,WUHU216HW,2013-01-28 08:28:00,
2013-01-28 00:33:00,40.3,38.4,30.32,West,270,0.7,1.1,93,0.00,,,0.00,WUHU216HW,2013-01-28 08:33:00,
2013-01-28 00:38:00,40.1,38.3,30.32,West,270,0.0,1.1,93,0.00,,,0.00,WUHU216HW,2013-01-28 08:38:00,
2013-01-28 00:43:00,40.3,38.4,30.32,SSE,158,0.0,1.1,93,0.00,,,0.00,WUHU216HW,2013-01-28 08:43:00,
2013-01-28 00:48:00,40.3,38.4,30.32,SSE,158,0.0,1.3,93,0.00,,,0.00,WUHU216HW,2013-01-28 08:48:00,
2013-01-28 00:53:00,40.3,38.4,30.32,SSE,158,0.0,1.3,93,0.00,,,0.00,WUHU216HW,2013-01-28 08:53:00,
2013-01-28 00:58:00,40.3,38.4,30.32,SSE,158,0.0,0.4,93,0.00,,,0.00,WUHU216HW,2013-01-28 08:58:00,
2013-01-28 01:03:00,40.3,38.4,30.32,SSE,158,0.0,0.0,93,0.00,,,0.00,WUHU216HW,2013-01-28 09:03:00,
2013-01-28 01:08:00,40.3,38.4,30.32,SSW,203,0.0,1.1,93,0.00,,,0.00,WUHU216HW,2013-01-28 09:08:00,
2013-01-28 01:13:00,40.3,38.4,30.32,SSW,203,0.0,1.1,93,0.00,,,0.00,WUHU216HW,2013-01-28 09:13:00,
2013-01-28 01:18:00,40.3,38.4,30.32,SSW,203,0.0,0.0,93,0.00,,,0.00,WUHU216HW,2013-01-28 09:18:00,
2013-01-28 01:23:00,40.3,38.4,30.32,SSW,203,0.0,0.4,93,0.00,,,0.00,WUHU216HW,2013-01-28 09:23:00,
2013-01-28 01:28:00,40.3,38.4,30.32,SSW,203,1.1,1.1,93,0.00,,,0.00,WUHU216HW,2013-01-28 09:28:00,
2013-01-28 01:33:00,40.1,38.3,30.32,SSW,203,0.4,1.1,93,0.00,,,0.00,WUHU216HW,2013-01-28 09:33:00,
2013-01-28 01:38:00,40.1,38.3,30.32,SSW,203,0.4,1.1,93,0.00,,,0.00,WUHU216HW,2013-01-28 09:38:00,
2013-01-28 01:43:00,40.1,38.3,30.32,SSW,203,0.2,1.1,93,0.00,,,0.00,WUHU216HW,2013-01-28 09:43:00,
2013-01-28 01:48:00,40.1,38.3,30.32,South,180,0.2,0.9,93,0.00,,,0.00,WUHU216HW,2013-01-28 09:48:00,
2013-01-28 01:53:00,40.0,38.1,30.32,NW,315,1.6,1.6,93,0.00,,,0.00,WUHU216HW,2013-01-28 09:53:00,
2013-01-28 01:58:00,40.0,38.1,30.32,SSW,203,2.5,2.5,93,0.00,,,0.00,WUHU216HW,2013-01-28 09:58:00,
2013-01-28 02:03:00,40.0,38.1,30.32,SSW,203,0.7,2.5,93,0.00,,,0.00,WUHU216HW,2013-01-28 10:03:00,
2013-01-28 02:08:00,40.0,38.1,30.32,SW,225,0.0,1.8,93,0.00,,,0.00,WUHU216HW,2013-01-28 10:08:00,
2013-01-28 02:13:00,40.0,38.3,30.33,SW,225,0.7,1.3,94,0.00,,,0.00,WUHU216HW,2013-01-28 10:13:00,
2013-01-28 02:18:00,40.0,38.1,30.33,SSW,203,0.7,1.3,93,0.00,,,0.00,WUHU216HW,2013-01-28 10:18:00,
2013-01-28 02:23:00,40.0,38.1,30.33,South,180,0.0,1.3,93,0.00,,,0.00,WUHU216HW,2013-01-28 10:23:00,
2013-01-28 02:28:00,40.0,38.3,30.33,SW,225,0.2,2.7,94,0.00,,,0.00,WUHU216HW,2013-01-28 10:28:00,
2013-01-28 02:33:00,40.0,38.1,30.32,South,180,0.0,2.7,93,0.00,,,0.00,WUHU216HW,2013-01-28 10:33:00,
2013-01-28 02:38:00,40.0,38.1,30.32,SW,225,0.7,2.2,93,0.00,,,0.00,WUHU216HW,2013-01-28 10:38:00,
2013-01-28 02:43:00,40.0,38.1,30.32,NW,315,0.0,2.2,93,0.00,,,0.00,WUHU216HW,2013-01-28 10:43:00,
2013-01-28 02:48:00,40.0,38.3,30.33,SW,225,0.0,1.6,94,0.00,,,0.00,WUHU216HW,2013-01-28 10:48:00,
2013-01-28 02:53:00,39.8,38.2,30.34,NW,315,0.0,1.6,94,0.00,,,0.00,WUHU216HW,2013-01-28 10:53:00,
2013-01-28 02:58:00,39.8,37.9,30.33,South,180,0.2,0.7,93,0.00,,,0.00,WUHU216HW,2013-01-28 10:58:00,
2013-01-28 03:03:00,39.8,37.9,30.33,SSE,158,0.2,1.6,93,0.00,,,0.00,WUHU216HW,2013-01-28 11:03:00,
2013-01-28 03:08:00,39.8,37.9,30.33,SW,225,0.0,1.6,93,0.00,,,0.00,WUHU216HW,2013-01-28 11:08:00,
2013-01-28 03:13:00,39.8,37.9,30.33,SW,225,0.0,1.1,93,0.00,,,0.00,WUHU216HW,2013-01-28 11:13:00,
2013-01-28 03:18:00,39.8,37.9,30.33,SW,225,0.4,1.1,93,0.00,,,0.00,WUHU216HW,2013-01-28 11:18:00,
2013-01-28 03:23:00,39.8,37.9,30.33,SW,225,0.0,1.1,93,0.00,,,0.00,WUHU216HW,2013-01-28 11:23:00,
2013-01-28 03:28:00,39.8,37.9,30.33,SW,225,0.0,0.0,93,0.00,,,0.00,WUHU216HW,2013-01-28 11:28:00,
2013-01-28 03:33:00,39.8,37.9,30.33,WNW,293,1.1,1.1,93,0.00,,,0.00,WUHU216HW,2013-01-28 11:33:00,
2013-01-28 03:38:00,39.6,37.7,30.33,NNW,338,0.0,1.1,93,0.00,,,0.00,WUHU216HW,2013-01-28 11:38:00,
2013-01-28 03:43:00,39.6,37.7,30.33,NNW,338,0.0,0.4,93,0.00,,,0.00,WUHU216HW,2013-01-28 11:43:00,
2013-01-28 03:48:00,39.6,37.7,30.33,NNW,338,0.0,0.4,93,0.00,,,0.00,WUHU216HW,2013-01-28 11:48:00,
2013-01-28 03:53:00,39.6,37.7,30.33,NNW,338,0.0,0.4,93,0.00,,,0.00,WUHU216HW,2013-01-28 11:53:00,
2013-01-28 03:58:00,39.6,37.7,30.33,WSW,248,0.0,1.6,93,0.00,,,0.00,WUHU216HW,2013-01-28 11:58:00,
2013-01-28 04:03:00,39.6,37.7,30.34,SW,225,1.1,1.6,93,0.00,,,0.00,WUHU216HW,2013-01-28 12:03:00,
2013-01-28 04:08:00,39.8,37.9,30.34,NW,315,0.0,1.1,93,0.00,,,0.00,WUHU216HW,2013-01-28 12:08:00,
2013-01-28 04:13:00,39.8,37.9,30.34,NW,315,0.0,0.4,93,0.00,,,0.00,WUHU216HW,2013-01-28 12:13:00,
2013-01-28 04:18:00,39.8,37.9,30.34,SSW,203,0.0,0.4,93,0.00,,,0.00,WUHU216HW,2013-01-28 12:18:00,
2013-01-28 04:23:00,39.8,37.9,30.34,SSW,203,0.0,0.4,93,0.00,,,0.00,WUHU216HW,2013-01-28 12:23:00,
2013-01-28 04:28:00,39.8,37.9,30.34,SSW,203,0.0,0.2,93,0.00,,,0.00,WUHU216HW,2013-01-28 12:28:00,
2013-01-28 04:33:00,39.8,37.9,30.34,SW,225,0.0,0.0,93,0.00,,,0.00,WUHU216HW,2013-01-28 12:33:00,
2013-01-28 04:38:00,39.8,37.9,30.34,SW,225,0.0,0.0,93,0.00,,,0.00,WUHU216HW,2013-01-28 12:38:00,
2013-01-28 04:43:00,39.8,37.9,30.34,WNW,293,0.0,0.0,93,0.00,,,0.00,WUHU216HW,2013-01-28 12:43:00,
2013-01-28 04:48:00,39.8,37.9,30.34,NNW,338,0.0,0.7,93,0.00,,,0.00,WUHU216HW,2013-01-28 12:48:00,
2013-01-28 04:53:00,39.8,37.9,30.34,West,270,0.0,0.7,93,0.00,,,0.00,WUHU216HW,2013-01-28 12:53:00,
2013-01-28 04:58:00,40.0,38.1,30.34,WSW,248,0.0,1.8,93,0.00,,,0.00,WUHU216HW,2013-01-28 12:58:00,
2013-01-28 05:03:00,40.0,38.1,30.34,WSW,248,0.0,1.8,93,0.00,,,0.00,WUHU216HW,2013-01-28 13:03:00,
2013-01-28 05:08:00,40.0,38.1,30.34,WSW,248,0.0,0.0,93,0.00,,,0.00,WUHU216HW,2013-01-28 13:08:00,
2013-01-28 05:13:00,40.0,38.1,30.34,SW,225,0.7,0.7,93,0.00,,,0.00,WUHU216HW,2013-01-28 13:13:00,
2013-01-28 05:18:00,40.0,38.1,30.34,ESE,113,0.0,0.7,93,0.00,,,0.00,WUHU216HW,2013-01-28 13:18:00,
2013-01-28 05:23:00,40.0,38.1,30.34,SE,135,0.0,0.9,93,0.00,,,0.00,WUHU216HW,2013-01-28 13:23:00,
2013-01-28 05:28:00,40.0,38.1,30.34,SE,135,0.0,0.9,93,0.00,,,0.00,WUHU216HW,2013-01-28 13:28:00,
2013-01-28 05:33:00,39.8,37.9,30.34,NNE,23,0.7,0.7,93,0.00,,,0.00,WUHU216HW,2013-01-28 13:33:00,
2013-01-28 05:38:00,39.6,37.7,30.34,NNE,23,0.0,0.9,93,0.00,,,0.00,WUHU216HW,2013-01-28 13:38:00,
2013-01-28 05:43:00,39.6,37.7,30.35,NNE,23,0.0,0.9,93,0.00,,,0.00,WUHU216HW,2013-01-28 13:43:00,
2013-01-28 05:48:00,39.6,37.7,30.34,NNE,23,0.0,0.0,93,0.00,,,0.00,WUHU216HW,2013-01-28 13:48:00,
2013-01-28 05:53:00,39.6,37.7,30.35,NNE,23,0.4,0.4,93,0.00,,,0.00,WUHU216HW,2013-01-28 13:53:00,
2013-01-28 05:58:00,39.6,37.7,30.35,NNE,23,0.0,0.7,93,0.00,,,0.00,WUHU216HW,2013-01-28 13:58:00,
2013-01-28 06:03:00,39.2,37.4,30.35,NNE,23,0.0,0.7,93,0.00,,,0.00,WUHU216HW,2013-01-28 14:03:00,
2013-01-28 06:08:00,39.2,37.4,30.35,North,0,0.4,0.4,93,0.00,,,0.00,WUHU216HW,2013-01-28 14:08:00,
2013-01-28 06:13:00,39.2,37.4,30.35,North,0,0.2,1.1,93,0.00,,,0.00,WUHU216HW,2013-01-28 14:13:00,
2013-01-28 06:18:00,39.2,37.4,30.35,ENE,68,0.0,1.1,93,0.00,,,0.00,WUHU216HW,2013-01-28 14:18:00,
2013-01-28 06:23:00,39.2,37.4,30.35,ENE,68,0.0,0.7,93,0.00,,,0.00,WUHU216HW,2013-01-28 14:23:00,
2013-01-28 06:28:00,39.2,37.4,30.35,NNE,23,0.0,0.4,93,0.00,,,0.00,WUHU216HW,2013-01-28 14:28:00,
2013-01-28 06:33:00,39.2,37.4,30.35,NNE,23,0.0,0.4,93,0.00,,,0.00,WUHU216HW,2013-01-28 14:33:00,
2013-01-28 06:38:00,39.2,37.4,30.35,NNE,23,0.0,0.2,93,0.00,,,0.00,WUHU216HW,2013-01-28 14:38:00,
2013-01-28 06:43:00,39.4,37.5,30.35,SSW,203,0.0,0.7,93,0.00,,,0.00,WUHU216HW,2013-01-28 14:43:00,
2013-01-28 06:48:00,39.4,37.5,30.35,SSW,203,0.0,0.7,93,0.00,,,0.00,WUHU216HW,2013-01-28 14:48:00,
2013-01-28 06:53:00,39.4,37.5,30.35,NNW,338,0.0,0.4,93,0.00,,,0.00,WUHU216HW,2013-01-28 14:53:00,
2013-01-28 06:58:00,39.4,37.5,30.36,NNW,338,0.4,0.4,93,0.00,,,0.00,WUHU216HW,2013-01-28 14:58:00,
2013-01-28 07:03:00,39.2,37.4,30.36,NNW,338,0.0,0.9,93,0.00,,,0.00,WUHU216HW,2013-01-28 15:03:00,
2013-01-28 07:08:00,39.2,37.4,30.36,NNW,338,0.0,0.9,93,0.00,,,0.00,WUHU216HW,2013-01-28 15:08:00,
2013-01-28 07:13:00,39.2,37.6,30.36,West,270,0.0,0.2,94,0.00,,,0.00,WUHU216HW,2013-01-28 15:13:00,
2013-01-28 07:18:00,39.2,37.4,30.36,West,270,0.0,0.2,93,0.00,,,0.00,WUHU216HW,2013-01-28 15:18:00,
2013-01-28 07:23:00,39.4,37.8,30.36,SW,225,0.0,1.8,94,0.00,,,0.00,WUHU216HW,2013-01-28 15:23:00,
2013-01-28 07:28:00,39.4,37.8,30.36,NNW,338,0.4,1.8,94,0.00,,,0.00,WUHU216HW,2013-01-28 15:28:00,
2013-01-28 07:33:00,39.4,37.5,30.36,NNW,338,0.4,0.9,93,0.00,,,0.00,WUHU216HW,2013-01-28 15:33:00,
2013-01-28 07:38:00,39.2,37.6,30.36,NNW,338,0.0,0.4,94,0.00,,,0.00,WUHU216HW,2013-01-28 15:38:00,
2013-01-28 07:43:00,39.2,37.4,30.36,NNW,338,0.0,0.4,93,0.00,,,0.00,WUHU216HW,2013-01-28 15:43:00,
2013-01-28 07:48:00,39.4,37.8,30.37,NE,45,0.2,0.4,94,0.00,,,0.00,WUHU216HW,2013-01-28 15:48:00,
2013-01-28 07:53:00,39.4,37.8,30.37,NNE,23,0.0,0.7,94,0.00,,,0.00,WUHU216HW,2013-01-28 15:53:00,
2013-01-28 07:58:00,39.4,37.5,30.37,NNE,23,0.0,0.7,93,0.00,,,0.00,WUHU216HW,2013-01-28 15:58:00,
2013-01-28 08:03:00,39.4,37.8,30.37,North,0,0.0,0.0,94,0.00,,,0.00,WUHU216HW,2013-01-28 16:03:00,
2013-01-28 08:08:00,39.6,38.0,30.36,North,0,0.4,0.4,94,0.00,,,0.00,WUHU216HW,2013-01-28 16:08:00,
2013-01-28 08:13:00,39.6,38.0,30.37,North,0,0.0,0.4,94,0.00,,,0.00,WUHU216HW,2013-01-28 16:13:00,
2013-01-28 08:18:00,39.8,38.2,30.36,South,180,0.0,1.8,94,0.00,,,0.00,WUHU216HW,2013-01-28 16:18:00,
2013-01-28 08:23:00,40.0,38.3,30.36,WSW,248,0.0,1.8,94,0.00,,,0.00,WUHU216HW,2013-01-28 16:23:00,
2013-01-28 08:28:00,40.0,38.1,30.37,SSW,203,0.7,1.8,93,0.00,,,0.00,WUHU216HW,2013-01-28 16:28:00,
2013-01-28 08:33:00,40.0,38.1,30.37,SSW,203,2.5,2.5,93,0.00,,,0.00,WUHU216HW,2013-01-28 16:33:00,
2013-01-28 08:38:00,40.1,38.3,30.37,SSW,203,0.4,2.5,93,0.00,,,0.00,WUHU216HW,2013-01-28 16:38:00,
2013-01-28 08:43:00,40.1,38.3,30.37,SW,225,1.8,2.0,93,0.00,,,0.00,WUHU216HW,2013-01-28 16:43:00,
2013-01-28 08:48:00,40.1,38.3,30.36,SW,225,1.3,2.5,93,0.00,,,0.00,WUHU216HW,2013-01-28 16:48:00,
2013-01-28 08:53:00,40.3,38.4,30.37,South,180,0.7,2.5,93,0.00,,,0.00,WUHU216HW,2013-01-28 16:53:00,
2013-01-28 08:58:00,40.3,38.4,30.37,SSW,203,0.4,2.7,93,0.01,,,0.01,WUHU216HW,2013-01-28 16:58:00,
2013-01-28 09:03:00,40.3,38.4,30.36,South,180,1.8,2.7,93,0.01,,,0.01,WUHU216HW,2013-01-28 17:03:00,
2013-01-28 09:08:00,40.5,38.6,30.36,SW,225,1.3,2.9,93,0.01,,,0.01,WUHU216HW,2013-01-28 17:08:00,
2013-01-28 09:13:00,40.5,38.6,30.36,South,180,0.4,2.9,93,0.01,,,0.01,WUHU216HW,2013-01-28 17:13:00,
2013-01-28 09:18:00,40.5,38.6,30.36,South,180,0.7,1.1,93,0.01,,,0.01,WUHU216HW,2013-01-28 17:18:00,
2013-01-28 09:23:00,40.7,38.8,30.36,South,180,0.0,0.9,93,0.01,,,0.01,WUHU216HW,2013-01-28 17:23:00,
2013-01-28 09:28:00,40.7,38.8,30.36,SSW,203,0.0,0.7,93,0.01,,,0.01,WUHU216HW,2013-01-28 17:28:00,
2013-01-28 09:33:00,40.7,38.8,30.37,WSW,248,0.0,0.7,93,0.01,,,0.01,WUHU216HW,2013-01-28 17:33:00,
2013-01-28 09:38:00,40.7,38.8,30.37,South,180,0.9,1.3,93,0.01,,,0.01,WUHU216HW,2013-01-28 17:38:00,
2013-01-28 09:43:00,40.9,39.0,30.37,South,180,0.0,1.3,93,0.01,,,0.01,WUHU216HW,2013-01-28 17:43:00,
2013-01-28 09:48:00,40.9,39.0,30.37,SW,225,0.7,1.3,93,0.01,,,0.01,WUHU216HW,2013-01-28 17:48:00,
2013-01-28 09:53:00,40.9,39.0,30.37,SW,225,2.5,2.5,93,0.01,,,0.01,WUHU216HW,2013-01-28 17:53:00,
2013-01-28 09:58:00,40.9,39.0,30.37,South,180,0.2,2.5,93,0.00,,,0.01,WUHU216HW,2013-01-28 17:58:00,
2013-01-28 10:03:00,40.9,39.0,30.37,SSW,203,0.4,1.1,93,0.00,,,0.01,WUHU216HW,2013-01-28 18:03:00,
2013-01-28 10:08:00,40.9,39.0,30.37,South,180,1.1,1.8,93,0.00,,,0.01,WUHU216HW,2013-01-28 18:08:00,
2013-01-28 10:13:00,40.9,39.0,30.37,WSW,248,0.0,1.8,93,0.00,,,0.01,WUHU216HW,2013-01-28 18:13:00,
2013-01-28 10:18:00,40.9,39.0,30.37,SSE,158,1.3,1.3,93,0.00,,,0.01,WUHU216HW,2013-01-28 18:18:00,
2013-01-28 10:23:00,41.0,39.2,30.37,South,180,0.4,1.3,93,0.01,,,0.02,WUHU216HW,2013-01-28 18:23:00,
2013-01-28 10:28:00,41.0,39.2,30.37,SSE,158,0.0,1.6,93,0.01,,,0.02,WUHU216HW,2013-01-28 18:28:00,
2013-01-28 10:33:00,41.0,39.2,30.37,South,180,0.0,1.6,93,0.01,,,0.02,WUHU216HW,2013-01-28 18:33:00,
2013-01-28 10:38:00,41.0,39.2,30.37,SSW,203,0.4,0.9,93,0.01,,,0.02,WUHU216HW,2013-01-28 18:38:00,
2013-01-28 10:43:00,41.0,39.2,30.37,SW,225,0.0,0.9,93,0.01,,,0.02,WUHU216HW,2013-01-28 18:43:00,
2013-01-28 10:48:00,41.0,39.2,30.37,SSW,203,1.6,1.6,93,0.01,,,0.02,WUHU216HW,2013-01-28 18:48:00,
2013-01-28 10:53:00,41.2,39.3,30.37,WSW,248,0.7,2.5,93,0.01,,,0.02,WUHU216HW,2013-01-28 18:53:00,
2013-01-28 10:58:00,41.2,39.3,30.37,SSW,203,0.4,2.9,93,0.01,,,0.02,WUHU216HW,2013-01-28 18:58:00,
2013-01-28 11:03:00,41.4,39.5,30.37,SSW,203,0.0,2.9,93,0.01,,,0.02,WUHU216HW,2013-01-28 19:03:00,
2013-01-28 11:08:00,41.2,39.3,30.37,South,180,1.1,1.8,93,0.01,,,0.02,WUHU216HW,2013-01-28 19:08:00,
2013-01-28 11:13:00,41.4,39.5,30.37,SW,225,1.8,2.5,93,0.01,,,0.02,WUHU216HW,2013-01-28 19:13:00,
2013-01-28 11:18:00,41.4,39.5,30.37,SSW,203,0.4,2.5,93,0.01,,,0.02,WUHU216HW,2013-01-28 19:18:00,
2013-01-28 11:23:00,41.4,39.5,30.37,SSE,158,0.2,1.6,93,0.00,,,0.02,WUHU216HW,2013-01-28 19:23:00,
2013-01-28 11:28:00,41.4,39.5,30.37,South,180,1.6,1.6,93,0.01,,,0.03,WUHU216HW,2013-01-28 19:28:00,
2013-01-28 11:33:00,41.6,39.7,30.37,South,180,1.8,1.8,93,0.01,,,0.03,WUHU216HW,2013-01-28 19:33:00,
2013-01-28 11:38:00,41.6,39.7,30.37,SSE,158,1.8,1.8,93,0.01,,,0.03,WUHU216HW,2013-01-28 19:38:00,
2013-01-28 11:43:00,41.6,39.7,30.37,SW,225,0.4,3.8,93,0.01,,,0.03,WUHU216HW,2013-01-28 19:43:00,
2013-01-28 11:48:00,41.6,39.7,30.37,SSE,158,1.1,3.8,93,0.01,,,0.03,WUHU216HW,2013-01-28 19:48:00,
2013-01-28 11:53:00,41.8,39.9,30.37,SW,225,0.9,1.1,93,0.01,,,0.03,WUHU216HW,2013-01-28 19:53:00,
2013-01-28 11:58:00,41.8,39.9,30.37,South,180,3.4,3.4,93,0.01,,,0.03,WUHU216HW,2013-01-28 19:58:00,
2013-01-28 12:03:00,41.8,39.9,30.37,SSE,158,0.0,3.4,93,0.01,,,0.03,WUHU216HW,2013-01-28 20:03:00,
2013-01-28 12:08:00,41.8,39.9,30.37,WSW,248,0.0,2.5,93,0.02,,,0.04,WUHU216HW,2013-01-28 20:08:00,
2013-01-28 12:13:00,41.8,39.9,30.37,South,180,2.2,2.2,93,0.02,,,0.04,WUHU216HW,2013-01-28 20:13:00,
2013-01-28 12:18:00,41.8,39.9,30.36,SW,225,0.0,2.2,93,0.02,,,0.04,WUHU216HW,2013-01-28 20:18:00,
2013-01-28 12:23:00,41.8,39.9,30.37,SW,225,1.1,1.3,93,0.01,,,0.04,WUHU216HW,2013-01-28 20:23:00,
2013-01-28 12:28:00,41.8,39.9,30.36,South,180,0.7,3.4,93,0.02,,,0.05,WUHU216HW,2013-01-28 20:28:00,
2013-01-28 12:33:00,41.8,39.9,30.37,SSE,158,0.0,3.4,93,0.02,,,0.05,WUHU216HW,2013-01-28 20:33:00,
2013-01-28 12:38:00,41.8,39.9,30.36,SSE,158,1.1,1.8,93,0.02,,,0.05,WUHU216HW,2013-01-28 20:38:00,
2013-01-28 12:43:00,41.6,39.7,30.36,SW,225,0.0,1.1,93,0.02,,,0.05,WUHU216HW,2013-01-28 20:43:00,
2013-01-28 12:48:00,41.8,39.9,30.36,NW,315,0.0,1.1,93,0.03,,,0.06,WUHU216HW,2013-01-28 20:48:00,
2013-01-28 12:53:00,41.8,39.9,30.36,SSW,203,0.7,1.1,93,0.03,,,0.06,WUHU216HW,2013-01-28 20:53:00,
2013-01-28 12:58:00,41.6,39.7,30.35,SW,225,1.1,1.8,93,0.03,,,0.06,WUHU216HW,2013-01-28 20:58:00,
2013-01-28 13:03:00,41.6,39.7,30.35,SSE,158,3.4,3.4,93,0.03,,,0.06,WUHU216HW,2013-01-28 21:03:00,
2013-01-28 13:08:00,41.6,39.7,30.35,WSW,248,0.0,3.4,93,0.03,,,0.07,WUHU216HW,2013-01-28 21:08:00,
2013-01-28 13:13:00,41.6,39.7,30.35,SSE,158,0.9,1.1,93,0.03,,,0.07,WUHU216HW,2013-01-28 21:13:00,
2013-01-28 13:18:00,41.6,39.7,30.35,SW,225,0.0,5.4,93,0.03,,,0.07,WUHU216HW,2013-01-28 21:18:00,
2013-01-28 13:23:00,41.6,39.7,30.35,SW,225,0.4,5.4,93,0.03,,,0.07,WUHU216HW,2013-01-28 21:23:00,
2013-01-28 13:28:00,41.6,39.7,30.35,WNW,293,0.4,1.1,93,0.03,,,0.07,WUHU216HW,2013-01-28 21:28:00,
2013-01-28 13:33:00,41.6,39.7,30.35,SW,225,1.3,1.3,93,0.03,,,0.08,WUHU216HW,2013-01-28 21:33:00,
2013-01-28 13:38:00,41.6,39.7,30.35,SSE,158,0.2,2.0,93,0.03,,,0.08,WUHU216HW,2013-01-28 21:38:00,
2013-01-28 13:43:00,41.8,39.9,30.35,South,180,0.4,2.0,93,0.04,,,0.09,WUHU216HW,2013-01-28 21:43:00,
2013-01-28 13:48:00,41.8,39.9,30.35,SSW,203,0.0,1.3,93,0.03,,,0.09,WUHU216HW,2013-01-28 21:48:00,
2013-01-28 13:53:00,41.8,39.9,30.34,SW,225,0.0,1.3,93,0.03,,,0.09,WUHU216HW,2013-01-28 21:53:00,
2013-01-28 13:58:00,41.8,39.9,30.34,ESE,113,0.7,1.1,93,0.03,,,0.09,WUHU216HW,2013-01-28 21:58:00,
2013-01-28 14:03:00,41.8,39.9,30.34,ESE,113,0.2,1.1,93,0.02,,,0.09,WUHU216HW,2013-01-28 22:03:00,
2013-01-28 14:08:00,41.8,39.9,30.33,SW,225,0.4,0.7,93,0.03,,,0.10,WUHU216HW,2013-01-28 22:08:00,
2013-01-28 14:13:00,41.8,39.9,30.33,WSW,248,1.3,1.3,93,0.03,,,0.10,WUHU216HW,2013-01-28 22:13:00,
2013-01-28 14:18:00,41.9,40.1,30.33,WSW,248,0.0,1.3,93,0.03,,,0.10,WUHU216HW,2013-01-28 22:18:00,
2013-01-28 14:23:00,41.9,40.1,30.33,SW,225,0.2,0.7,93,0.03,,,0.10,WUHU216HW,2013-01-28 22:23:00,
2013-01-28 14:28:00,41.9,40.1,30.33,SW,225,0.0,0.2,93,0.03,,,0.11,WUHU216HW,2013-01-28 22:28:00,
2013-01-28 14:33:00,42.1,40.2,30.33,SSE,158,0.0,1.3,93,0.03,,,0.11,WUHU216HW,2013-01-28 22:33:00,
2013-01-28 14:38:00,42.1,40.2,30.33,SW,225,0.2,1.3,93,0.02,,,0.11,WUHU216HW,2013-01-28 22:38:00,
2013-01-28 14:43:00,42.1,40.2,30.33,South,180,0.2,1.1,93,0.02,,,0.11,WUHU216HW,2013-01-28 22:43:00,
2013-01-28 14:48:00,42.1,40.2,30.33,South,180,0.0,0.4,93,0.02,,,0.11,WUHU216HW,2013-01-28 22:48:00,
2013-01-28 14:53:00,42.1,40.2,30.32,South,180,0.7,1.1,93,0.02,,,0.11,WUHU216HW,2013-01-28 22:53:00,
2013-01-28 14:58:00,42.1,40.2,30.33,SSW,203,0.0,1.1,93,0.03,,,0.12,WUHU216HW,2013-01-28 22:58:00,
2013-01-28 15:03:00,42.1,40.2,30.32,WSW,248,0.0,1.8,93,0.03,,,0.12,WUHU216HW,2013-01-28 23:03:00,
2013-01-28 15:08:00,42.3,40.4,30.33,WSW,248,0.0,1.8,93,0.02,,,0.12,WUHU216HW,2013-01-28 23:08:00,
2013-01-28 15:13:00,42.1,40.2,30.33,WSW,248,0.0,0.2,93,0.03,,,0.13,WUHU216HW,2013-01-28 23:13:00,
2013-01-28 15:18:00,42.3,40.4,30.33,SSE,158,0.9,1.1,93,0.03,,,0.13,WUHU216HW,2013-01-28 23:18:00,
2013-01-28 15:23:00,42.3,40.4,30.33,SW,225,1.6,1.6,93,0.03,,,0.13,WUHU216HW,2013-01-28 23:23:00,
2013-01-28 15:28:00,42.3,40.7,30.33,SW,225,1.3,2.2,94,0.02,,,0.13,WUHU216HW,2013-01-28 23:28:00,
2013-01-28 15:33:00,42.3,40.4,30.33,SW,225,1.1,2.2,93,0.02,,,0.13,WUHU216HW,2013-01-28 23:33:00,
2013-01-28 15:38:00,42.3,40.4,30.33,SSE,158,0.2,2.9,93,0.02,,,0.13,WUHU216HW,2013-01-28 23:38:00,
2013-01-28 15:43:00,42.3,40.4,30.33,SSW,203,0.0,2.9,93,0.03,,,0.14,WUHU216HW,2013-01-28 23:43:00,
2013-01-28 15:48:00,42.3,40.4,30.34,South,180,1.8,1.8,93,0.03,,,0.14,WUHU216HW,2013-01-28 23:48:00,
2013-01-28 15:53:00,42.3,40.7,30.33,SW,225,1.8,2.2,94,0.02,,,0.14,WUHU216HW,2013-01-28 23:53:00,
2013-01-28 15:58:00,42.5,40.9,30.33,SW,225,0.4,2.2,94,0.03,,,0.15,WUHU216HW,2013-01-28 23:58:00,
2013-01-28 16:03:00,42.5,40.9,30.32,SSE,158,1.6,2.2,94,0.03,,,0.15,WUHU216HW,2013-01-29 00:03:00,
2013-01-28 16:08:00,42.5,40.9,30.32,South,180,1.3,1.6,94,0.02,,,0.15,WUHU216HW,2013-01-29 00:08:00,
2013-01-28 16:13:00,42.5,40.9,30.32,South,180,1.8,1.8,94,0.03,,,0.16,WUHU216HW,2013-01-29 00:13:00,
2013-01-28 16:18:00,42.5,40.9,30.32,SSE,158,0.0,1.8,94,0.03,,,0.16,WUHU216HW,2013-01-29 00:18:00,
2013-01-28 16:23:00,42.5,40.9,30.32,SSE,158,0.0,1.8,94,0.03,,,0.16,WUHU216HW,2013-01-29 00:23:00,
2013-01-28 16:28:00,42.5,40.9,30.33,ESE,113,0.0,0.7,94,0.03,,,0.16,WUHU216HW,2013-01-29 00:28:00,
2013-01-28 16:33:00,42.5,40.9,30.32,South,180,0.0,0.7,94,0.03,,,0.16,WUHU216HW,2013-01-29 00:33:00,
2013-01-28 16:38:00,42.5,40.9,30.33,SW,225,0.0,0.7,94,0.03,,,0.16,WUHU216HW,2013-01-29 00:38:00,
2013-01-28 16:43:00,42.5,40.9,30.33,SW,225,0.0,0.7,94,0.03,,,0.17,WUHU216HW,2013-01-29 00:43:00,
2013-01-28 16:48:00,42.5,40.9,30.33,SSE,158,1.3,1.3,94,0.03,,,0.17,WUHU216HW,2013-01-29 00:48:00,
2013-01-28 16:53:00,42.5,40.9,30.33,SE,135,0.0,1.3,94,0.03,,,0.17,WUHU216HW,2013-01-29 00:53:00,
2013-01-28 16:58:00,42.5,40.9,30.33,SE,135,0.0,0.4,94,0.03,,,0.18,WUHU216HW,2013-01-29 00:58:00,
2013-01-28 17:03:00,42.5,40.9,30.34,SE,135,0.0,0.0,94,0.04,,,0.19,WUHU216HW,2013-01-29 01:03:00,
2013-01-28 17:08:00,42.5,40.9,30.34,SE,135,0.0,0.0,94,0.05,,,0.20,WUHU216HW,2013-01-29 01:08:00,
2013-01-28 17:13:00,42.5,40.9,30.34,SE,135,0.0,0.0,94,0.05,,,0.21,WUHU216HW,2013-01-29 01:13:00,
2013-01-28 17:18:00,42.5,40.9,30.34,SE,135,0.0,0.0,94,0.05,,,0.21,WUHU216HW,2013-01-29 01:18:00,
2013-01-28 17:23:00,42.5,40.9,30.34,East,90,0.0,0.0,94,0.06,,,0.22,WUHU216HW,2013-01-29 01:23:00,
2013-01-28 17:28:00,42.3,40.7,30.34,East,90,0.0,0.2,94,0.06,,,0.22,WUHU216HW,2013-01-29 01:28:00,
2013-01-28 17:33:00,42.3,40.7,30.33,East,90,0.0,0.2,94,0.07,,,0.23,WUHU216HW,2013-01-29 01:33:00,
2013-01-28 17:38:00,42.3,40.7,30.34,East,90,0.2,0.2,94,0.06,,,0.23,WUHU216HW,2013-01-29 01:38:00,
2013-01-28 17:43:00,42.3,40.7,30.33,South,180,1.1,1.8,94,0.06,,,0.23,WUHU216HW,2013-01-29 01:43:00,
2013-01-28 17:48:00,42.5,40.9,30.34,South,180,0.0,1.8,94,0.07,,,0.23,WUHU216HW,2013-01-29 01:48:00,
2013-01-28 17:53:00,42.5,40.9,30.34,South,180,0.0,0.2,94,0.06,,,0.24,WUHU216HW,2013-01-29 01:53:00,
2013-01-28 17:58:00,42.5,40.9,30.34,South,180,0.2,0.2,94,0.05,,,0.24,WUHU216HW,2013-01-29 01:58:00,
2013-01-28 18:03:00,42.5,40.9,30.34,SSW,203,0.2,0.2,94,0.06,,,0.25,WUHU216HW,2013-01-29 02:03:00,
2013-01-28 18:08:00,42.5,40.9,30.35,SW,225,0.0,0.2,94,0.04,,,0.25,WUHU216HW,2013-01-29 02:08:00,
2013-01-28 18:13:00,42.5,40.9,30.35,SSW,203,0.0,0.0,94,0.04,,,0.25,WUHU216HW,2013-01-29 02:13:00,
2013-01-28 18:18:00,42.5,40.9,30.35,SSW,203,0.0,0.0,94,0.05,,,0.26,WUHU216HW,2013-01-29 02:18:00,
2013-01-28 18:23:00,42.5,40.9,30.35,SSE,158,0.0,0.4,94,0.05,,,0.27,WUHU216HW,2013-01-29 02:23:00,
2013-01-28 18:28:00,42.5,40.9,30.35,SSE,158,0.2,2.5,94,0.05,,,0.27,WUHU216HW,2013-01-29 02:28:00,
2013-01-28 18:33:00,42.5,40.9,30.35,NE,45,0.0,2.5,94,0.05,,,0.28,WUHU216HW,2013-01-29 02:33:00,
2013-01-28 18:38:00,42.5,40.9,30.35,SSE,158,0.9,0.9,94,0.05,,,0.28,WUHU216HW,2013-01-29 02:38:00,
2013-01-28 18:43:00,42.5,40.9,30.35,WSW,248,0.0,1.8,94,0.06,,,0.29,WUHU216HW,2013-01-29 02:43:00,
2013-01-28 18:48:00,42.5,40.9,30.35,SSE,158,1.1,1.8,94,0.05,,,0.29,WUHU216HW,2013-01-29 02:48:00,
2013-01-28 18:53:00,42.5,40.9,30.35,SSE,158,0.2,1.6,94,0.05,,,0.29,WUHU216HW,2013-01-29 02:53:00,
2013-01-28 18:58:00,42.5,40.9,30.34,SSE,158,1.3,1.6,94,0.06,,,0.30,WUHU216HW,2013-01-29 02:58:00,
2013-01-28 19:03:00,42.5,40.9,30.34,NNW,338,0.7,1.6,94,0.05,,,0.30,WUHU216HW,2013-01-29 03:03:00,
2013-01-28 19:08:00,42.5,40.9,30.34,North,0,0.0,1.8,94,0.06,,,0.31,WUHU216HW,2013-01-29 03:08:00,
2013-01-28 19:13:00,42.5,40.9,30.34,North,0,0.4,1.8,94,0.05,,,0.31,WUHU216HW,2013-01-29 03:13:00,
2013-01-28 19:18:00,42.5,40.9,30.34,SSE,158,0.4,1.6,94,0.04,,,0.31,WUHU216HW,2013-01-29 03:18:00,
2013-01-28 19:23:00,42.5,40.9,30.34,SSE,158,0.4,1.6,94,0.04,,,0.31,WUHU216HW,2013-01-29 03:23:00,
2013-01-28 19:28:00,42.5,40.9,30.34,SE,135,0.9,1.1,94,0.04,,,0.31,WUHU216HW,2013-01-29 03:28:00,
2013-01-28 19:33:00,42.5,40.9,30.34,SW,225,0.7,2.7,94,0.03,,,0.31,WUHU216HW,2013-01-29 03:33:00,
2013-01-28 19:38:00,42.5,40.9,30.34,NW,315,0.0,3.8,94,0.02,,,0.31,WUHU216HW,2013-01-29 03:38:00,
2013-01-28 19:43:00,42.5,40.9,30.34,South,180,0.9,3.8,94,0.02,,,0.31,WUHU216HW,2013-01-29 03:43:00,
2013-01-28 19:48:00,42.5,40.9,30.34,South,180,0.2,1.1,94,0.03,,,0.31,WUHU216HW,2013-01-29 03:48:00,
2013-01-28 19:53:00,42.5,40.9,30.34,West,270,0.7,2.0,94,0.03,,,0.32,WUHU216HW,2013-01-29 03:53:00,
2013-01-28 19:58:00,42.5,40.9,30.34,WSW,248,0.7,2.0,94,0.02,,,0.32,WUHU216HW,2013-01-29 03:58:00,
2013-01-28 20:03:00,42.5,40.9,30.34,WSW,248,0.0,1.6,94,0.02,,,0.32,WUHU216HW,2013-01-29 04:03:00,
2013-01-28 20:08:00,42.5,40.9,30.34,ESE,113,1.6,1.6,94,0.01,,,0.32,WUHU216HW,2013-01-29 04:08:00,
2013-01-28 20:13:00,42.5,40.9,30.35,SSW,203,0.4,1.6,94,0.01,,,0.32,WUHU216HW,2013-01-29 04:13:00,
2013-01-28 20:18:00,42.5,40.9,30.35,West,270,0.4,1.6,94,0.01,,,0.32,WUHU216HW,2013-01-29 04:18:00,
2013-01-28 20:23:00,42.5,40.9,30.35,South,180,2.5,2.5,94,0.02,,,0.33,WUHU216HW,2013-01-29 04:23:00,
2013-01-28 20:28:00,42.5,40.9,30.34,SSE,158,0.7,2.5,94,0.02,,,0.33,WUHU216HW,2013-01-29 04:28:00,
2013-01-28 20:33:00,42.5,40.9,30.35,NNE,23,0.4,1.8,94,0.02,,,0.33,WUHU216HW,2013-01-29 04:33:00,
2013-01-28 20:38:00,42.3,40.7,30.35,SW,225,0.4,1.8,94,0.02,,,0.33,WUHU216HW,2013-01-29 04:38:00,
2013-01-28 20:43:00,42.3,40.7,30.35,South,180,0.0,1.8,94,0.02,,,0.33,WUHU216HW,2013-01-29 04:43:00,
2013-01-28 20:48:00,42.3,40.7,30.36,SSE,158,0.0,2.0,94,0.01,,,0.33,WUHU216HW,2013-01-29 04:48:00,
2013-01-28 20:53:00,42.5,40.9,30.35,SSE,158,0.0,2.0,94,0.01,,,0.33,WUHU216HW,2013-01-29 04:53:00,
2013-01-28 20:58:00,42.3,40.7,30.36,SSW,203,0.4,0.7,94,0.02,,,0.33,WUHU216HW,2013-01-29 04:58:00,
2013-01-28 21:01:00,42.3,40.7,30.36,SSW,203,0.2,0.7,94,0.02,,,0.34,WUHU216HW,2013-01-29 05:01:00,
2013-01-28 21:03:00,42.3,40.7,30.36,SSW,203,0.0,1.6,94,0.02,,,0.34,WUHU216HW,2013-01-29 05:03:00,
2013-01-28 21:08:00,42.3,40.7,30.36,SSE,158,0.0,1.6,94,0.02,,,0.34,WUHU216HW,2013-01-29 05:08:00,
2013-01-28 21:13:00,42.3,40.7,30.36,SE,135,0.4,1.6,94,0.03,,,0.35,WUHU216HW,2013-01-29 05:13:00,
2013-01-28 21:18:00,42.3,40.7,30.36,SW,225,0.4,1.6,94,0.02,,,0.35,WUHU216HW,2013-01-29 05:18:00,
2013-01-28 21:23:00,42.5,40.9,30.36,WSW,248,0.2,0.4,94,0.02,,,0.35,WUHU216HW,2013-01-29 05:23:00,
2013-01-28 21:28:00,42.3,40.7,30.36,SW,225,0.7,0.7,94,0.02,,,0.35,WUHU216HW,2013-01-29 05:28:00,
2013-01-28 21:33:00,42.3,40.7,30.36,SSW,203,0.0,1.1,94,0.03,,,0.35,WUHU216HW,2013-01-29 05:33:00,
2013-01-28 21:38:00,42.3,40.7,30.36,SSW,203,0.0,1.1,94,0.03,,,0.36,WUHU216HW,2013-01-29 05:38:00,
2013-01-28 21:43:00,42.3,40.7,30.36,SSW,203,0.4,1.1,94,0.04,,,0.37,WUHU216HW,2013-01-29 05:43:00,
2013-01-28 21:48:00,42.3,40.7,30.37,WSW,248,0.0,1.1,94,0.04,,,0.37,WUHU216HW,2013-01-29 05:48:00,
2013-01-28 21:53:00,42.3,40.7,30.37,NNE,23,0.0,1.1,94,0.04,,,0.37,WUHU216HW,2013-01-29 05:53:00,
2013-01-28 21:58:00,42.3,40.7,30.37,NW,315,0.2,0.9,94,0.03,,,0.37,WUHU216HW,2013-01-29 05:58:00,
2013-01-28 22:03:00,42.3,40.7,30.37,SSE,158,1.3,1.3,94,0.03,,,0.37,WUHU216HW,2013-01-29 06:03:00,
2013-01-28 22:08:00,42.3,40.7,30.37,SW,225,0.7,1.3,94,0.03,,,0.37,WUHU216HW,2013-01-29 06:08:00,
2013-01-28 22:13:00,42.3,40.7,30.37,ENE,68,0.0,1.1,94,0.03,,,0.39,WUHU216HW,2013-01-29 06:13:00,
2013-01-28 22:18:00,42.3,40.7,30.37,ENE,68,0.0,0.2,94,0.03,,,0.39,WUHU216HW,2013-01-29 06:18:00,
2013-01-28 22:23:00,42.3,40.7,30.37,NNW,338,0.4,0.4,94,0.03,,,0.39,WUHU216HW,2013-01-29 06:23:00,
2013-01-28 22:28:00,42.3,40.7,30.37,South,180,0.4,0.7,94,0.03,,,0.39,WUHU216HW,2013-01-29 06:28:00,
2013-01-28 22:33:00,42.3,40.7,30.37,WSW,248,0.9,2.5,94,0.03,,,0.39,WUHU216HW,2013-01-29 06:33:00,
2013-01-28 22:38:00,42.3,40.7,30.38,WSW,248,0.0,2.5,94,0.03,,,0.39,WUHU216HW,2013-01-29 06:38:00,
2013-01-28 22:43:00,42.3,40.7,30.38,SSW,203,1.1,1.1,94,0.02,,,0.39,WUHU216HW,2013-01-29 06:43:00,
2013-01-28 22:48:00,42.3,40.7,30.38,South,180,1.8,1.8,94,0.03,,,0.39,WUHU216HW,2013-01-29 06:48:00,
2013-01-28 22:53:00,42.3,40.7,30.38,SSE,158,0.0,1.8,94,0.03,,,0.40,WUHU216HW,2013-01-29 06:53:00,
2013-01-28 22:58:00,42.3,40.7,30.38,WNW,293,0.0,0.7,94,0.03,,,0.40,WUHU216HW,2013-01-29 06:58:00,
2013-01-28 23:03:00,42.3,40.7,30.38,South,180,0.4,0.7,94,0.03,,,0.40,WUHU216HW,2013-01-29 07:03:00,
2013-01-28 23:08:00,42.5,40.9,30.38,South,180,0.0,0.7,94,0.03,,,0.41,WUHU216HW,2013-01-29 07:08:00,
2013-01-28 23:13:00,42.3,40.7,30.39,SSE,158,1.8,1.8,94,0.03,,,0.41,WUHU216HW,2013-01-29 07:13:00,
2013-01-28 23:18:00,42.3,40.7,30.39,South,180,0.0,1.8,94,0.03,,,0.41,WUHU216HW,2013-01-29 07:18:00,
2013-01-28 23:23:00,42.3,40.7,30.39,South,180,0.2,1.1,94,0.03,,,0.41,WUHU216HW,2013-01-29 07:23:00,
2013-01-28 23:28:00,42.3,40.7,30.40,SW,225,0.0,1.1,94,0.02,,,0.41,WUHU216HW,2013-01-29 07:28:00,
2013-01-28 23:33:00,42.3,40.7,30.39,SSW,203,1.1,1.1,94,0.02,,,0.41,WUHU216HW,2013-01-29 07:33:00,
2013-01-28 23:38:00,42.3,40.7,30.40,NNW,338,0.0,1.8,94,0.02,,,0.41,WUHU216HW,2013-01-29 07:38:00,
2013-01-28 23:43:00,42.3,40.7,30.40,SSW,203,0.4,1.8,94,0.02,,,0.41,WUHU216HW,2013-01-29 07:43:00,
2013-01-28 23:48:00,42.3,40.7,30.40,WSW,248,0.4,1.6,94,0.01,,,0.41,WUHU216HW,2013-01-29 07:48:00,
2013-01-28 23:53:00,42.3,40.7,30.40,SSW,203,1.1,1.6,94,0.01,,,0.41,WUHU216HW,2013-01-29 07:53:00,
2013-01-28 23:58:00,42.3,40.7,30.40,SW,225,0.0,1.1,94,0.02,,,0.42,WUHU216HW,2013-01-29 07:58:00,